カタログに戻る

STARLINK-4392

運用中通信SSO
NORAD 53489·PAYLOAD·🇺🇸 United States

打ち上げ Aug 12, 2022 から Vandenberg Space Force Base

Loading…

次のパス (今後24時間)

TLE

最新Source: CelesTrak SupGP

元期: Sep 14, 2026, 21:47 UTC

1 53489C 22099AA  26257.90812500  .00570870  00000+0  33248-1 0  2572
2 53489  97.2854  12.0900 0001794  90.4812 261.7595 15.11814898    15

AllMySatでSTARLINK-4392をリアルタイム追跡

Download on the App Store